WXM80 ListenWXM80 Stop

You find our weather info also at:

UK Metoffice

WeatherCloud

Weather Underground

Northeastern Weather Network

AWEKAS

Citizen Weather Observer Program (CWOP)

HAMweather, WeatherForYou, PWS Weather


Weather Underground History page Text

Daily Summary for Nil La, TWC- Units:  English    Metric   Both
« Previous Day
Next Day »
Daily Weekly Monthly Yearly Custom
  High: Low: Average:
Temperature: 40.9 °F 33.8 °F 36.7 °F
Dew Point: 29.1 °F 25.1 °F 26.9 °F
Humidity: 76 % 56 % 68 %
Wind Speed: 9.5 mph 0 mph 3.3 mph
Wind Gust: 16.1 mph - -
Wind:- - NW
Pressure: 30.18 in 29.91 in -
Precipitation: 0 in    
Historical Graphs
 
 
Tabular Data for Nil La, TWC-
Time Temperature Dew Point Pressure Wind Wind Speed Wind Gust Humidity Rainfall Rate (Hourly)
00:04 34.7 °F 26.6 °F 29.91 in NW 5 mph 12.7 mph 72 % 0 in
00:09 34.7 °F 26.6 °F 29.92 in WNW 6 mph 11.5 mph 72 % 0 in
00:14 34.6 °F 26.5 °F 29.92 in WNW 3 mph 8.1 mph 72 % 0 in
00:19 34.6 °F 26.8 °F 29.92 in West 6.7 mph 15 mph 73 % 0 in
00:24 34.5 °F 26.4 °F 29.92 in WNW 5.7 mph 13.8 mph 72 % 0 in
00:29 34.5 °F 26.1 °F 29.92 in West 2.8 mph 9.2 mph 71 % 0 in
00:34 34.5 °F 26.4 °F 29.92 in WNW 7 mph 12.7 mph 72 % 0 in
00:39 34.5 °F 26.1 °F 29.92 in WNW 4.6 mph 8 mph 71 % 0 in
00:44 34.4 °F 26 °F 29.92 in WNW 3.6 mph 11.5 mph 71 % 0 in
00:49 34.4 °F 26 °F 29.92 in NW 5.2 mph 8.1 mph 71 % 0 in
00:54 34.4 °F 25.6 °F 29.92 in WNW 7.3 mph 16.1 mph 70 % 0 in
00:59 34.4 °F 25.3 °F 29.92 in NW 5.3 mph 8 mph 69 % 0 in
01:04 34.4 °F 25.6 °F 29.93 in NW 5.2 mph 12.7 mph 70 % 0 in
01:09 34.4 °F 26 °F 29.93 in NNW 3.4 mph 7 mph 71 % 0 in
01:14 34.4 °F 25.6 °F 29.92 in NNW 5.7 mph 9.2 mph 70 % 0 in
01:19 34.4 °F 25.6 °F 29.92 in NW 3.2 mph 6.9 mph 70 % 0 in
01:24 34.4 °F 25.6 °F 29.93 in WNW 2 mph 4 mph 70 % 0 in
01:29 34.3 °F 25.5 °F 29.93 in WNW 1.1 mph 4.6 mph 70 % 0 in
01:34 34.3 °F 25.5 °F 29.93 in West 3.6 mph 8.1 mph 70 % 0 in
01:39 34.3 °F 25.5 °F 29.93 in WNW 5.7 mph 10 mph 70 % 0 in
01:44 34.3 °F 25.5 °F 29.93 in NW 0.8 mph 11.5 mph 70 % 0 in
01:49 34.4 °F 25.3 °F 29.93 in WNW 3.5 mph 8.1 mph 69 % 0 in
01:54 34.3 °F 25.5 °F 29.93 in WNW 2.5 mph 11.5 mph 70 % 0 in
01:59 34.3 °F 25.5 °F 29.94 in NW 6.4 mph 11.5 mph 70 % 0 in
02:04 34.3 °F 25.5 °F 29.94 in NW 2.2 mph 10 mph 70 % 0 in
02:09 34.2 °F 25.4 °F 29.94 in NW 3.9 mph 9.2 mph 70 % 0 in
02:14 34.2 °F 25.1 °F 29.94 in NW 4.7 mph 10.4 mph 69 % 0 in
02:19 34.2 °F 25.4 °F 29.94 in NW 4 mph 9.2 mph 70 % 0 in
02:24 34.2 °F 25.4 °F 29.94 in NW 5.9 mph 11.5 mph 70 % 0 in
02:29 34.2 °F 25.4 °F 29.94 in West 3.4 mph 6 mph 70 % 0 in
02:34 34.2 °F 25.4 °F 29.95 in NW 5.9 mph 9.2 mph 70 % 0 in
02:39 34.2 °F 25.4 °F 29.94 in NW 6.8 mph 11.5 mph 70 % 0 in
02:44 34.2 °F 25.1 °F 29.95 in WNW 2.1 mph 10.4 mph 69 % 0 in
02:49 34.2 °F 25.4 °F 29.95 in WSW 5.6 mph 12.7 mph 70 % 0 in
02:54 34.2 °F 25.8 °F 29.95 in WNW 2.8 mph 10.4 mph 71 % 0 in
02:59 34.2 °F 25.8 °F 29.95 in NW 2.2 mph 11.5 mph 71 % 0 in
03:04 34.2 °F 25.4 °F 29.95 in NW 6.1 mph 9.2 mph 70 % 0 in
03:09 34.2 °F 25.8 °F 29.95 in NW 3.5 mph 11.5 mph 71 % 0 in
03:14 34.2 °F 25.8 °F 29.95 in NW 6 mph 8.1 mph 71 % 0 in
03:19 34.2 °F 25.8 °F 29.95 in WNW 3.2 mph 10.4 mph 71 % 0 in
03:24 34.2 °F 25.4 °F 29.95 in NW 5.2 mph 10.4 mph 70 % 0 in
03:29 34.2 °F 25.8 °F 29.95 in NW 7 mph 11.5 mph 71 % 0 in
03:34 34.2 °F 25.8 °F 29.95 in WNW 5.5 mph 11.5 mph 71 % 0 in
03:39 34.1 °F 26 °F 29.95 in WNW 2.6 mph 8.1 mph 72 % 0 in
03:44 34 °F 25.6 °F 29.95 in WNW 4.1 mph 6.9 mph 71 % 0 in
03:49 34 °F 25.6 °F 29.96 in West 4.5 mph 8.1 mph 71 % 0 in
03:54 34 °F 25.9 °F 29.96 in WNW 5.7 mph 9.2 mph 72 % 0 in
03:59 33.9 °F 25.8 °F 29.96 in WNW 3.2 mph 8.1 mph 72 % 0 in
04:04 33.9 °F 25.8 °F 29.96 in WNW 1.9 mph 8.1 mph 72 % 0 in
04:09 33.8 °F 25.7 °F 29.96 in NW 8.3 mph 11.5 mph 72 % 0 in
04:14 33.9 °F 26.2 °F 29.96 in NW 2.2 mph 10.4 mph 73 % 0 in
04:19 33.8 °F 25.7 °F 29.96 in WNW 7.9 mph 12 mph 72 % 0 in
04:24 33.9 °F 26.2 °F 29.96 in WNW 5.7 mph 9.2 mph 73 % 0 in
04:29 33.9 °F 26.2 °F 29.97 in WNW 6.1 mph 12.7 mph 73 % 0 in
04:34 33.9 °F 25.8 °F 29.97 in WNW 4.3 mph 14 mph 72 % 0 in
04:39 33.9 °F 25.8 °F 29.97 in NW 5.1 mph 13.8 mph 72 % 0 in
04:44 33.9 °F 25.8 °F 29.97 in NW 6.6 mph 13.8 mph 72 % 0 in
04:49 33.9 °F 26.2 °F 29.97 in WNW 7 mph 10.4 mph 73 % 0 in
04:54 34 °F 25.9 °F 29.97 in NNW 7.2 mph 10.4 mph 72 % 0 in
04:59 34 °F 26.3 °F 29.98 in NW 6.1 mph 10.4 mph 73 % 0 in
05:04 34.1 °F 26 °F 29.98 in WNW 4.6 mph 9.2 mph 72 % 0 in
05:09 34.1 °F 26.3 °F 29.98 in NW 3.1 mph 11.5 mph 73 % 0 in
05:14 34.1 °F 26.3 °F 29.98 in WNW 4 mph 13.8 mph 73 % 0 in
05:19 34.1 °F 26.3 °F 29.98 in WNW 6.5 mph 8.1 mph 73 % 0 in
05:24 34.1 °F 26.3 °F 29.98 in NW 4.1 mph 7 mph 73 % 0 in
05:29 34.1 °F 26.3 °F 29.99 in NW 8.5 mph 13 mph 73 % 0 in
05:34 34.1 °F 26.3 °F 29.99 in WNW 3.8 mph 7 mph 73 % 0 in
05:39 34.1 °F 26.3 °F 29.99 in WNW 0.3 mph 6.9 mph 73 % 0 in
05:44 34.1 °F 26.3 °F 29.99 in NW 6 mph 10.4 mph 73 % 0 in
05:49 34.1 °F 26.7 °F 30.00 in NW 4.1 mph 9.2 mph 74 % 0 in
05:54 34.1 °F 26.7 °F 30.00 in WNW 6.2 mph 8.1 mph 74 % 0 in
05:59 34.1 °F 26.7 °F 30.00 in WNW 6.1 mph 8 mph 74 % 0 in
06:04 34.1 °F 26.7 °F 30.00 in WNW 1.8 mph 6.9 mph 74 % 0 in
06:09 34.1 °F 26.7 °F 30.00 in NW 2.8 mph 6.9 mph 74 % 0 in
06:14 34 °F 26.6 °F 30.01 in WNW 9.5 mph 11 mph 74 % 0 in
06:19 34 °F 26.6 °F 30.01 in WNW 2.9 mph 10 mph 74 % 0 in
06:24 34 °F 26.6 °F 30.02 in West 4.3 mph 9.2 mph 74 % 0 in
06:29 34 °F 26.9 °F 30.02 in NNW 5.4 mph 6.9 mph 75 % 0 in
06:34 33.9 °F 26.8 °F 30.02 in WNW 3.9 mph 8.1 mph 75 % 0 in
06:39 34 °F 26.9 °F 30.02 in NW 3.7 mph 11.5 mph 75 % 0 in
06:44 33.9 °F 26.8 °F 30.02 in WNW 5.6 mph 11.5 mph 75 % 0 in
06:49 33.9 °F 26.8 °F 30.02 in NW 2.5 mph 5.8 mph 75 % 0 in
06:54 33.9 °F 26.8 °F 30.02 in WNW 5 mph 11.5 mph 75 % 0 in
06:59 33.9 °F 26.8 °F 30.02 in NNW 4.3 mph 15 mph 75 % 0 in
07:04 33.9 °F 27.1 °F 30.03 in WNW 3.7 mph 11.5 mph 76 % 0 in
07:09 33.9 °F 27.1 °F 30.03 in NNW 3.4 mph 6.9 mph 76 % 0 in
07:14 33.9 °F 27.1 °F 30.03 in NW 3.6 mph 10.4 mph 76 % 0 in
07:19 33.9 °F 27.1 °F 30.03 in NW 5.9 mph 12.7 mph 76 % 0 in
07:24 33.9 °F 27.1 °F 30.03 in NW 2.4 mph 10.4 mph 76 % 0 in
07:29 34 °F 27.2 °F 30.03 in WNW 4.7 mph 9.2 mph 76 % 0 in
07:34 34 °F 27.2 °F 30.04 in NNW 4.8 mph 6.9 mph 76 % 0 in
07:39 34 °F 26.9 °F 30.04 in NNW 4.2 mph 5.8 mph 75 % 0 in
07:44 34.1 °F 27.3 °F 30.04 in WNW 4.1 mph 8.1 mph 76 % 0 in
07:49 34.2 °F 27.4 °F 30.04 in NW 2.7 mph 8.1 mph 76 % 0 in
07:54 34.2 °F 27.1 °F 30.05 in WNW 2.6 mph 5 mph 75 % 0 in
07:59 34.2 °F 27.4 °F 30.05 in NW 3.6 mph 9.2 mph 76 % 0 in
08:04 34.2 °F 27.1 °F 30.05 in NNW 4 mph 5.8 mph 75 % 0 in
08:09 34.3 °F 27.5 °F 30.05 in NW 1.7 mph 5.8 mph 76 % 0 in
08:14 34.4 °F 27.3 °F 30.06 in WNW 3.1 mph 5 mph 75 % 0 in
08:19 34.4 °F 27.3 °F 30.06 in WNW 5.6 mph 8 mph 75 % 0 in
08:24 34.6 °F 27.5 °F 30.06 in WNW 1.3 mph 6 mph 75 % 0 in
08:29 34.7 °F 27.6 °F 30.07 in WNW 2.7 mph 9 mph 75 % 0 in
08:34 34.8 °F 27.4 °F 30.07 in North 1.8 mph 5.8 mph 74 % 0 in
08:39 34.9 °F 27.5 °F 30.08 in NNW 3 mph 4.6 mph 74 % 0 in
08:44 35.1 °F 28 °F 30.08 in NW 6.2 mph 11.5 mph 75 % 0 in
08:49 35.2 °F 27.7 °F 30.07 in NW 3.9 mph 5.8 mph 74 % 0 in
08:54 35.3 °F 27.5 °F 30.08 in WNW 3.9 mph 9 mph 73 % 0 in
08:59 35.5 °F 27.7 °F 30.08 in WNW 4.5 mph 11.5 mph 73 % 0 in
09:04 35.6 °F 27.8 °F 30.09 in WNW 5.7 mph 9 mph 73 % 0 in
09:09 35.8 °F 28 °F 30.09 in North 3.2 mph 7 mph 73 % 0 in
09:14 36 °F 28.2 °F 30.09 in WNW 5.6 mph 10.4 mph 73 % 0 in
09:19 36.1 °F 27.9 °F 30.09 in NW 3.2 mph 6.9 mph 72 % 0 in
09:24 36.3 °F 28.1 °F 30.09 in WNW 4.2 mph 9.2 mph 72 % 0 in
09:29 36.4 °F 28.2 °F 30.10 in NW 3.1 mph 4.6 mph 72 % 0 in
09:34 36.6 °F 28.1 °F 30.10 in NW 2.8 mph 8.1 mph 71 % 0 in
09:39 36.8 °F 28.3 °F 30.11 in WNW 4.1 mph 6 mph 71 % 0 in
09:44 36.9 °F 28.4 °F 30.11 in NW 3.8 mph 6.9 mph 71 % 0 in
09:49 37.1 °F 28.2 °F 30.11 in NW 3.1 mph 5.8 mph 70 % 0 in
09:54 37.3 °F 28.4 °F 30.11 in NNW 2.7 mph 6.9 mph 70 % 0 in
09:59 37.5 °F 28.6 °F 30.11 in WNW 3.2 mph 9.2 mph 70 % 0 in
10:04 37.7 °F 28.4 °F 30.11 in NNW 3.6 mph 7 mph 69 % 0 in
10:09 37.9 °F 28.6 °F 30.11 in NW 4.4 mph 5.8 mph 69 % 0 in
10:14 38.1 °F 28.5 °F 30.11 in NW 1.2 mph 4.6 mph 68 % 0 in
10:19 38.3 °F 28.7 °F 30.11 in NW 0.2 mph 3.5 mph 68 % 0 in
10:24 38.5 °F 28.9 °F 30.11 in NW 1.2 mph 5 mph 68 % 0 in
10:29 38.8 °F 28.8 °F 30.11 in NNW 1.1 mph 2.3 mph 67 % 0 in
10:34 38.8 °F 28.8 °F 30.10 in NNW 1.8 mph 3.5 mph 67 % 0 in
10:39 39 °F 29 °F 30.11 in North 3.7 mph 7 mph 67 % 0 in
10:44 39 °F 28.2 °F 30.11 in NNW 3.5 mph 4.6 mph 65 % 0 in
10:49 39.1 °F 28.7 °F 30.11 in NNW 0.6 mph 4.6 mph 66 % 0 in
10:54 39.2 °F 28.8 °F 30.11 in WNW 2.7 mph 5 mph 66 % 0 in
10:59 39.2 °F 28.8 °F 30.10 in NNW 2.1 mph 5.8 mph 66 % 0 in
11:04 39.1 °F 28.7 °F 30.10 in North 1.4 mph 5.8 mph 66 % 0 in
11:09 39.2 °F 28.8 °F 30.10 in NNW 4.7 mph 7 mph 66 % 0 in
11:14 39.3 °F 28.9 °F 30.10 in North 0.1 mph 3.5 mph 66 % 0 in
11:19 39.5 °F 29.1 °F 30.10 in NW 1.6 mph 7 mph 66 % 0 in
11:24 39.6 °F 28.4 °F 30.10 in NNE 1.3 mph 6.9 mph 64 % 0 in
11:29 39.7 °F 28.9 °F 30.10 in North 0.8 mph 6.9 mph 65 % 0 in
11:34 39.8 °F 29 °F 30.09 in North 1.1 mph 3.5 mph 65 % 0 in
11:39 40 °F 28.8 °F 30.09 in NNW 4.9 mph 10.4 mph 64 % 0 in
11:44 39.9 °F 27.5 °F 30.08 in North 6.5 mph 12.7 mph 61 % 0 in
11:49 39.8 °F 27.4 °F 30.08 in NW 6.2 mph 11.5 mph 61 % 0 in
11:54 39.7 °F 27.7 °F 30.08 in NW 1.9 mph 9.2 mph 62 % 0 in
11:59 39.8 °F 27.8 °F 30.08 in NNW 3.7 mph 4.6 mph 62 % 0 in
12:04 39.8 °F 27.8 °F 30.09 in North 2.2 mph 6.9 mph 62 % 0 in
12:09 39.9 °F 28.3 °F 30.09 in North 1.4 mph 5.8 mph 63 % 0 in
12:14 40.1 °F 28.1 °F 30.09 in NNW 3.7 mph 6.9 mph 62 % 0 in
12:19 40.2 °F 27.8 °F 30.09 in NNW 1.5 mph 9.2 mph 61 % 0 in
12:24 40.5 °F 28.1 °F 30.09 in NNW 0.7 mph 6.9 mph 61 % 0 in
12:29 40.7 °F 28.3 °F 30.09 in NNW 0.6 mph 3.5 mph 61 % 0 in
12:34 40.7 °F 27.9 °F 30.09 in NNW 1.6 mph 6 mph 60 % 0 in
12:39 40.9 °F 28.5 °F 30.09 in North 0.5 mph 4.6 mph 61 % 0 in
12:44 40.9 °F 27.7 °F 30.09 in Calm   2.3 mph 59 % 0 in
12:49 40.9 °F 27.7 °F 30.09 in North 1 mph 5.8 mph 59 % 0 in
12:54 40.9 °F 28.1 °F 30.09 in NNW 2.1 mph 4 mph 60 % 0 in
12:59 40.9 °F 28.1 °F 30.09 in North 0.6 mph 3.5 mph 60 % 0 in
13:04 40.8 °F 28.4 °F 30.09 in North 0.4 mph 1.2 mph 61 % 0 in
13:09 40.8 °F 28 °F 30.08 in Calm     60 % 0 in
13:14 40.7 °F 27.9 °F 30.08 in Calm   1.2 mph 60 % 0 in
13:19 40.7 °F 27.9 °F 30.09 in WNW 0.3 mph 2 mph 60 % 0 in
13:24 40.7 °F 27.9 °F 30.08 in WNW 2.3 mph 2 mph 60 % 0 in
13:29 40.7 °F 27.5 °F 30.08 in NW 2.3 mph 5 mph 59 % 0 in
13:34 40.7 °F 27.9 °F 30.08 in NW 0.2 mph 1.2 mph 60 % 0 in
13:39 40.9 °F 27.7 °F 30.09 in NW 2.4 mph 4.6 mph 59 % 0 in
13:44 40.9 °F 26.8 °F 30.09 in NW 4.4 mph 8.1 mph 57 % 0 in
13:49 40.9 °F 26.8 °F 30.09 in NW 2 mph 4.6 mph 57 % 0 in
13:54 40.9 °F 26.8 °F 30.09 in NW 5.9 mph 8.1 mph 57 % 0 in
13:59 40.9 °F 26.8 °F 30.09 in WNW 4.6 mph 7 mph 57 % 0 in
14:04 40.7 °F 26.6 °F 30.09 in NW 1.4 mph 5 mph 57 % 0 in
14:09 40.6 °F 26.1 °F 30.10 in NNW 4.3 mph 7 mph 56 % 0 in
14:14 40.6 °F 26.1 °F 30.10 in NW 1.4 mph 6.9 mph 56 % 0 in
14:19 40.5 °F 26 °F 30.10 in WNW 1.8 mph 4 mph 56 % 0 in
14:24 40.4 °F 26.4 °F 30.10 in NNW 2 mph 8.1 mph 57 % 0 in
14:29 40.4 °F 26.8 °F 30.10 in NW 1.9 mph 7 mph 58 % 0 in
14:34 40.3 °F 26.7 °F 30.10 in WNW 2.3 mph 4.6 mph 58 % 0 in
14:39 40.3 °F 26.3 °F 30.11 in WNW 5.8 mph 8 mph 57 % 0 in
14:44 40.2 °F 26.6 °F 30.11 in WNW 4.2 mph 8 mph 58 % 0 in
14:49 40.1 °F 26.1 °F 30.11 in NW 2.6 mph 8.1 mph 57 % 0 in
14:54 40.1 °F 26.5 °F 30.11 in WNW 3.1 mph 8.1 mph 58 % 0 in
14:59 40 °F 26.4 °F 30.11 in NW 2.1 mph 9.2 mph 58 % 0 in
15:04 40 °F 26.8 °F 30.11 in WNW 2.7 mph 6.9 mph 59 % 0 in
15:09 40 °F 26.8 °F 30.11 in WNW 1.1 mph 5.8 mph 59 % 0 in
15:14 40 °F 26.8 °F 30.11 in WNW 1 mph 2 mph 59 % 0 in
15:19 39.9 °F 26.7 °F 30.11 in NW 0.8 mph 2.3 mph 59 % 0 in
15:24 39.8 °F 27 °F 30.11 in WNW 0.9 mph 6 mph 60 % 0 in
15:29 39.8 °F 27 °F 30.12 in WNW 0.5 mph 1.2 mph 60 % 0 in
15:34 39.7 °F 26.9 °F 30.12 in West 0.6 mph 2.3 mph 60 % 0 in
15:39 39.6 °F 26.8 °F 30.11 in Calm     60 % 0 in
15:44 39.5 °F 26.8 °F 30.11 in WNW 1.9 mph 3.5 mph 60 % 0 in
15:49 39.4 °F 26.7 °F 30.11 in WNW 1.9 mph 4.6 mph 60 % 0 in
15:54 39.3 °F 27 °F 30.12 in WNW 1.2 mph 5.8 mph 61 % 0 in
15:59 39.2 °F 26.9 °F 30.13 in Calm     61 % 0 in
16:04 39.1 °F 27.2 °F 30.12 in WNW 3.4 mph 6 mph 62 % 0 in
16:09 39 °F 26.7 °F 30.13 in NW 3.2 mph 5.8 mph 61 % 0 in
16:14 38.9 °F 27 °F 30.13 in West 0.8 mph 6 mph 62 % 0 in
16:19 38.8 °F 26.5 °F 30.12 in NNW 0.2 mph 8.1 mph 61 % 0 in
16:24 38.8 °F 26.9 °F 30.12 in NW 1.9 mph 4.6 mph 62 % 0 in
16:29 38.7 °F 26.8 °F 30.13 in WNW 3.4 mph 8.1 mph 62 % 0 in
16:34 38.6 °F 26.7 °F 30.13 in NW 4.4 mph 6 mph 62 % 0 in
16:39 38.6 °F 26.7 °F 30.14 in West 2.5 mph 9 mph 62 % 0 in
16:44 38.5 °F 27 °F 30.14 in WNW 0.4 mph 4.6 mph 63 % 0 in
16:49 38.4 °F 26.9 °F 30.14 in West 1.2 mph 5 mph 63 % 0 in
16:54 38.4 °F 26.9 °F 30.14 in West 2.8 mph 6.9 mph 63 % 0 in
16:59 38.3 °F 26.8 °F 30.15 in WNW 5.6 mph 9.2 mph 63 % 0 in
17:04 38.3 °F 26.8 °F 30.15 in WSW 2.4 mph 6.9 mph 63 % 0 in
17:09 38.3 °F 26.8 °F 30.15 in West 1 mph 4.6 mph 63 % 0 in
17:14 38.2 °F 26.7 °F 30.16 in NW 3.2 mph 3.5 mph 63 % 0 in
17:19 38.2 °F 27.1 °F 30.16 in WNW 1.5 mph 3.5 mph 64 % 0 in
17:24 38.1 °F 27 °F 30.16 in NW 1.1 mph 5.8 mph 64 % 0 in
17:29 38.1 °F 27 °F 30.16 in Calm   3.5 mph 64 % 0 in
17:34 38 °F 27.6 °F 30.17 in WNW 1.7 mph 2.3 mph 66 % 0 in
17:39 37.9 °F 27.2 °F 30.17 in NW 5.3 mph 6.9 mph 65 % 0 in
17:44 37.9 °F 27.2 °F 30.17 in NNW 3.9 mph 10.4 mph 65 % 0 in
17:49 37.9 °F 27.2 °F 30.17 in NNW 2.2 mph 5 mph 65 % 0 in
17:54 37.9 °F 27.2 °F 30.18 in WNW 1.7 mph 8.1 mph 65 % 0 in
17:59 37.8 °F 27.1 °F 30.18 in WNW 3.3 mph 4.6 mph 65 % 0 in
18:04 37.8 °F 27.1 °F 30.18 in WNW 0.9 mph 6.9 mph 65 % 0 in
18:09 37.8 °F 27.1 °F 30.18 in NW 2 mph 6.9 mph 65 % 0 in
18:14 37.7 °F 26.6 °F 30.18 in WNW 2.9 mph 6.9 mph 64 % 0 in
18:19 37.7 °F 27 °F 30.18 in NW 4.4 mph 4 mph 65 % 0 in
18:24 37.7 °F 26.6 °F 30.18 in NW 0.6 mph 5.8 mph 64 % 0 in
Crab Meadow Weather
Compliments of Weather Underground - 2.5 mb

Script developed by  Jim McMurry - jmcmurry@mwt.net Adapted for the template by  Wim van der Kuil - Leuven-Template.eu

Weather Terms: Winter Storms - These are weather hazards associated with freezing or frozen precipitation (freezing rain, sleet, snow) or combined effects of winter precipitation and strong winds.